Tracking 32932 objects as of 14-Jan-2026
HD Live streaming from Space Station
objects crossing your sky now

COSMOS 1231

Track COSMOS 1231 now!
10-day predictions
COSMOS 1231 is classified as:


NORAD ID: 12110
Int'l Code: 1980-102D
Perigee: 1,412.4 km
Apogee: 1,471.4 km
Inclination: 74.0 °
Period: 114.5 minutes
Semi major axis: 7812 km
RCS: 0.7072 m2 (medium)
Launch date: December 23, 1980
Source: Commonwealth of Independent States (former USSR) (CIS)
Launch site: PLESETSK MISSILE AND SPACE COMPLEX (PKMTR)
Your satellite tracking list
Your tracking list is empty




NASA's NSSDC Master Catalog

Two Line Element Set (TLE):
1 12110U 80102D   26013.80710993  .00000005  00000-0  13165-3 0  9999
2 12110  73.9911 198.0206 0037756 292.1632 175.8880 12.57134831 67720
Source of the keplerian elements: AFSPC